This is the latest recevied weather packets stored in our database for station/object KA1JKB. If no packets are shown the sender has not sent any weather packets the latest 10 day(s).
| Time | Temp. | Humidity | Pressure | Rain* | Wind** | Luminosity | Snow |
|---|---|---|---|---|---|---|---|
| 1788224723 | 22.22° C | 97% | 1012.2 hPa | 0 mm | - | 0 W/m² | - |
| 1788224422 | 22.22° C | 97% | 1012.2 hPa | 0 mm | - | 0 W/m² | - |
| 1788224122 | 22.22° C | 97% | 1012.1 hPa | 0 mm | - | 0 W/m² | - |
| 1788223818 | 22.22° C | 97% | 1012.1 hPa | 0 mm | - | 0 W/m² | - |
| 1788223517 | 22.22° C | 97% | 1012.1 hPa | 0 mm | - | 0 W/m² | - |
| 1788223212 | 22.22° C | 97% | 1011.9 hPa | 0 mm | - | 0 W/m² | - |
| 1788222907 | 22.22° C | 97% | 1012.2 hPa | 0 mm | - | 0 W/m² | - |
| 1788222606 | 22.22° C | 96% | 1012.2 hPa | 0 mm | - | 0 W/m² | - |
| 1788222306 | 22.22° C | 96% | 1012.3 hPa | 0 mm | - | 0 W/m² | - |
| 1788222000 | 22.22° C | 96% | 1012.2 hPa | 0 mm | - | 0 W/m² | - |
| 1788221696 | 22.22° C | 96% | 1012 hPa | 0 mm | - | 0 W/m² | - |
| 1788221391 | 22.78° C | 96% | 1011.9 hPa | 0 mm | - | 0 W/m² | - |
| 1788221091 | 22.22° C | 96% | 1012 hPa | 0 mm | - | 0 W/m² | - |
| 1788220790 | 22.22° C | 96% | 1012.2 hPa | 0 mm | - | 1 W/m² | - |
| 1788220486 | 22.22° C | 97% | 1012 hPa | 0 mm | - | 2 W/m² | - |
| 1788220181 | 22.22° C | 97% | 1012 hPa | 0 mm | - | 5 W/m² | - |
| 1788219875 | 22.22° C | 97% | 1012.1 hPa | 0 mm | - | 7 W/m² | - |
| 1788219571 | 22.22° C | 97% | 1011.9 hPa | 0 mm | - | 13 W/m² | - |
| 1788219266 | 22.22° C | 97% | 1011.8 hPa | 0 mm | - | 22 W/m² | - |
| 1788218961 | 22.22° C | 96% | 1012.3 hPa | 0 mm | - | 28 W/m² | - |
| 1788218657 | 22.22° C | 96% | 1012.2 hPa | 0 mm | - | 34 W/m² | - |
| 1788218353 | 22.78° C | 95% | 1012.4 hPa | 0 mm | - | 38 W/m² | - |
| 1788218049 | 22.78° C | 95% | 1012.5 hPa | 0 mm | - | 37 W/m² | - |
| 1788217745 | 22.78° C | 95% | 1012.6 hPa | 0 mm | - | 27 W/m² | - |
| 1788217445 | 22.22° C | 95% | 1012.7 hPa | 0 mm | - | 32 W/m² | - |
* Rain latest hour (hover to see other rain measurements)
** Current wind speed in m/s (hover to see current wind gust speed)